Regional Weather Roundup
Issued by NWS

Home | Current Version | Previous Version | Graphics & Text | Print | Product List | Glossary On
Versions: 1 2 3 4 5 6 7 8 9 10 11 12 13 14 15 16 17 18 19 20 21 22 23 24 25 26 27 28 29 30 31 32 33 34 35 36 37 38 39 40 41 42 43 44 45 46 47 48 49 50
000
ASUS43 KBIS 301120
RWRND

NORTH DAKOTA REGIONAL WEATHER ROUNDUP
NATIONAL WEATHER SERVICE BISMARCK ND
600 AM CDT MON MAR 30 2015

NOTE: "FAIR" INDICATES FEW OR NO CLOUDS BELOW 12,000 FEET WITH NO
SIGNIFICANT WEATHER AND/OR OBSTRUCTIONS TO VISIBILITY.


NDZ001>003-009>011-017-301200-
NORTHWEST NORTH DAKOTA

CITY           SKY/WX    TMP DP  RH WIND       PRES   REMARKS
WILLISTON      MOCLDY    41  31  67 SW5       29.83R
MINOT          CLOUDY    46  31  55 SW5       29.76F
MINOT AFB      CLOUDY    36  36  99 S3        29.75F
$$

NDZ018>021-031>035-040>046-301200-
SOUTHWEST NORTH DAKOTA

CITY           SKY/WX    TMP DP  RH WIND       PRES   REMARKS
BISMARCK       PTCLDY    32  27  81 SW5       29.86F
DICKINSON      CLOUDY    44  28  53 W16       29.86S
GARRISON         N/A     39  32  76 SW9       29.80F
HETTINGER ARPT MOCLDY    35  28  75 W6        29.93S
$$

NDZ004>008-012>016-024-026-027-054-301200-
NORTHEAST NORTH DAKOTA

CITY           SKY/WX    TMP DP  RH WIND       PRES   REMARKS
GRAND FORKS    CLOUDY    36  31  82 CALM      29.88F
GRND FRKS AFB  CLOUDY    36  31  82 CALM      29.87F
DEVILS LAKE    CLOUDY    36  30  80 SE8       29.81F
$$

NDZ022-023-025-028>030-036>039-047>053-301200-
SOUTHEAST NORTH DAKOTA

CITY           SKY/WX    TMP DP  RH WIND       PRES   REMARKS
FARGO          CLOUDY    36  29  75 CALM      29.90F
JAMESTOWN      CLOUDY    33  29  85 SE8       29.84F
$$




USA.gov is the U.S. government's official web portal to all federal, state and local government web resources and services.